Hourly Weather Haskovo

Today, 30 October, Friday

Time Temperature Precipitation Wind Pressure Humidity
00:00 +13°C° 0 mm 0 mps 742 mmHg 89%
01:00 +13°C° 0 mm 0 mps 742 mmHg 88%
02:00 +13°C° 0 mm 0 mps 742 mmHg 89%
03:00 +14°C° 0.5 mm 1 mps 742 mmHg 90%
04:00 +14°C° 0.5 mm 1 mps 742 mmHg 91%
05:00 +13°C° 0.5 mm 1 mps 741 mmHg 92%
06:00 +14°C° 0.6 mm 1 mps 742 mmHg 90%
07:00 +14°C° 0.6 mm 2 mps 742 mmHg 88%
08:00 +14°C° 0 mm 2 mps 742 mmHg 87%
09:00 +14°C° 0.2 mm 3 mps 742 mmHg 78%
10:00 +15°C° 0.2 mm 4 mps 742 mmHg 69%
11:00 +16°C° 0.2 mm 5 mps 742 mmHg 60%
12:00 +17°C° 0.1 mm 5 mps 742 mmHg 54%
13:00 +17°C° 0.1 mm 5 mps 742 mmHg 49%
14:00 +17°C° 0.1 mm 6 mps 742 mmHg 43%
15:00 +16°C° 0 mm 5 mps 742 mmHg 44%
16:00 +15°C° 0 mm 5 mps 742 mmHg 45%
17:00 +14°C° 0 mm 4 mps 742 mmHg 45%
18:00 +13°C° 0 mm 4 mps 743 mmHg 49%
19:00 +12°C° 0 mm 3 mps 743 mmHg 54%
20:00 +11°C° 0 mm 3 mps 743 mmHg 58%
21:00 +10°C° 0 mm 3 mps 744 mmHg 59%
22:00 +10°C° 0 mm 4 mps 744 mmHg 61%
23:00 +10°C° 0 mm 4 mps 744 mmHg 62%

Tomorrow, 31 October, Saturday

Time Temperature Precipitation Wind Pressure Humidity
00:00 +8°C° 0 mm 4 mps 744 mmHg 63%
01:00 +8°C° 0 mm 4 mps 744 mmHg 63%
02:00 +9°C° 0 mm 3 mps 744 mmHg 64%
03:00 +8°C° 0 mm 3 mps 744 mmHg 65%
04:00 +8°C° 0 mm 3 mps 744 mmHg 65%
05:00 +8°C° 0 mm 3 mps 744 mmHg 66%
06:00 +8°C° 0 mm 2 mps 744 mmHg 65%
07:00 +8°C° 0 mm 2 mps 744 mmHg 64%
08:00 +9°C° 0 mm 2 mps 744 mmHg 64%
09:00 +12°C° 0 mm 2 mps 744 mmHg 59%
10:00 +14°C° 0 mm 2 mps 744 mmHg 54%
11:00 +16°C° 0 mm 3 mps 744 mmHg 49%
12:00 +17°C° 0 mm 3 mps 743 mmHg 48%
13:00 +17°C° 0 mm 3 mps 743 mmHg 48%
14:00 +18°C° 0 mm 4 mps 742 mmHg 48%
15:00 +18°C° 0 mm 3 mps 742 mmHg 52%
16:00 +17°C° 0 mm 3 mps 742 mmHg 56%
17:00 +16°C° 0 mm 3 mps 741 mmHg 59%
18:00 +16°C° 0 mm 3 mps 741 mmHg 60%
19:00 +14°C° 0 mm 3 mps 741 mmHg 62%
20:00 +14°C° 0 mm 3 mps 741 mmHg 63%
21:00 +14°C° 0 mm 3 mps 742 mmHg 65%
22:00 +13°C° 0 mm 3 mps 742 mmHg 68%
23:00 +13°C° 0 mm 3 mps 742 mmHg 70%

Day after tomorrow, 1 November, Sunday

Time Temperature Precipitation Wind Pressure Humidity
00:00 +12°C° 0.1 mm 3 mps 742 mmHg 74%
01:00 +12°C° 0.1 mm 3 mps 742 mmHg 78%
02:00 +11°C° 0.1 mm 3 mps 743 mmHg 82%
03:00 +12°C° 0 mm 2 mps 743 mmHg 81%
04:00 +12°C° 0 mm 2 mps 743 mmHg 79%
05:00 +11°C° 0 mm 1 mps 744 mmHg 78%
06:00 +11°C° 0 mm 1 mps 744 mmHg 76%
07:00 +11°C° 0 mm 1 mps 744 mmHg 75%
08:00 +10°C° 0 mm 1 mps 745 mmHg 74%
09:00 +11°C° 0 mm 1 mps 745 mmHg 67%
10:00 +13°C° 0 mm 1 mps 745 mmHg 60%
11:00 +14°C° 0 mm 1 mps 745 mmHg 54%
12:00 +15°C° 0 mm 1 mps 745 mmHg 50%
13:00 +15°C° 0 mm 2 mps 745 mmHg 47%
14:00 +16°C° 0 mm 2 mps 744 mmHg 44%
15:00 +15°C° 0 mm 2 mps 744 mmHg 47%
16:00 +15°C° 0 mm 1 mps 744 mmHg 49%
17:00 +14°C° 0 mm 1 mps 744 mmHg 52%
18:00 +13°C° 0 mm 1 mps 744 mmHg 55%
19:00 +12°C° 0 mm 2 mps 745 mmHg 58%
20:00 +12°C° 0 mm 2 mps 745 mmHg 60%
21:00 +10°C° 0 mm 2 mps 745 mmHg 62%
22:00 +10°C° 0 mm 2 mps 745 mmHg 64%
23:00 +11°C° 0 mm 1 mps 745 mmHg 66%

2 November, Monday

Time Temperature Precipitation Wind Pressure Humidity
00:00 +10°C° 0 mm 1 mps 745 mmHg 67%
01:00 +10°C° 0 mm 1 mps 745 mmHg 67%
02:00 +10°C° 0 mm 1 mps 745 mmHg 68%
03:00 +9°C° 0 mm 1 mps 745 mmHg 69%
04:00 +9°C° 0 mm 1 mps 745 mmHg 69%
05:00 +9°C° 0 mm 1 mps 745 mmHg 70%
06:00 +9°C° 0 mm 1 mps 745 mmHg 69%
07:00 +10°C° 0 mm 1 mps 745 mmHg 69%
08:00 +10°C° 0 mm 1 mps 745 mmHg 68%
09:00 +12°C° 0 mm 1 mps 745 mmHg 62%
10:00 +13°C° 0 mm 1 mps 745 mmHg 55%
11:00 +15°C° 0 mm 1 mps 745 mmHg 49%
12:00 +15°C° 0 mm 1 mps 745 mmHg 49%
13:00 +15°C° 0 mm 1 mps 744 mmHg 49%
14:00 +15°C° 0 mm 1 mps 744 mmHg 49%
15:00 +15°C° 0 mm 1 mps 744 mmHg 51%
16:00 +14°C° 0 mm 1 mps 744 mmHg 54%
17:00 +14°C° 0 mm 1 mps 744 mmHg 56%
18:00 +13°C° 0 mm 1 mps 744 mmHg 58%
19:00 +12°C° 0 mm 0 mps 744 mmHg 60%
20:00 +12°C° 0 mm 0 mps 744 mmHg 62%
21:00 +12°C° 0 mm 0 mps 744 mmHg 62%
22:00 +12°C° 0 mm 0 mps 744 mmHg 62%
23:00 +12°C° 0 mm 0 mps 744 mmHg 62%

3 November, Tuesday

Time Temperature Precipitation Wind Pressure Humidity
00:00 +12°C° 0 mm 0 mps 744 mmHg 62%
01:00 +12°C° 0 mm 0 mps 744 mmHg 63%
02:00 +12°C° 0 mm 0 mps 744 mmHg 64%
03:00 +12°C° 0 mm 0 mps 744 mmHg 64%
04:00 +12°C° 0 mm 0 mps 744 mmHg 64%
05:00 +12°C° 0 mm 0 mps 744 mmHg 65%
06:00 +12°C° 0 mm 0 mps 744 mmHg 65%
07:00 +12°C° 0 mm 0 mps 744 mmHg 65%
08:00 +12°C° 0 mm 0 mps 744 mmHg 65%
09:00 +13°C° 0 mm 0 mps 744 mmHg 61%
10:00 +14°C° 0 mm 0 mps 744 mmHg 57%
11:00 +15°C° 0 mm 0 mps 744 mmHg 53%
12:00 +16°C° 0 mm 0 mps 744 mmHg 52%
13:00 +16°C° 0 mm 0 mps 744 mmHg 51%
14:00 +19°C° 0 mm 1 mps 744 mmHg 50%
15:00 +16°C° 0 mm 0 mps 744 mmHg 53%
16:00 +16°C° 0 mm 0 mps 744 mmHg 56%
17:00 +15°C° 0 mm 0 mps 744 mmHg 59%
18:00 +15°C° 0 mm 0 mps 744 mmHg 60%
19:00 +14°C° 0 mm 0 mps 744 mmHg 62%
20:00 +14°C° 0 mm 0 mps 744 mmHg 64%
21:00 +14°C° 0 mm 0 mps 744 mmHg 64%
22:00 +14°C° 0 mm 0 mps 744 mmHg 64%
23:00 +14°C° 0 mm 0 mps 744 mmHg 64%

4 November, Wednesday

Time Temperature Precipitation Wind Pressure Humidity
00:00 +14°C° 0 mm 0 mps 744 mmHg 66%
01:00 +13°C° 0 mm 0 mps 744 mmHg 68%
02:00 +13°C° 0 mm 0 mps 744 mmHg 70%
03:00 +12°C° 0 mm 0 mps 744 mmHg 72%
04:00 +12°C° 0 mm 0 mps 744 mmHg 74%
05:00 +12°C° 0 mm 0 mps 744 mmHg 75%
06:00 +12°C° 0 mm 0 mps 744 mmHg 75%
07:00 +12°C° 0 mm 0 mps 744 mmHg 74%
08:00 +12°C° 0 mm 0 mps 745 mmHg 74%
09:00 +14°C° 0 mm 1 mps 745 mmHg 70%
10:00 +16°C° 0 mm 1 mps 745 mmHg 65%
11:00 +17°C° 0 mm 2 mps 746 mmHg 61%
12:00 +17°C° 0 mm 2 mps 746 mmHg 61%
13:00 +17°C° 0 mm 3 mps 746 mmHg 61%
14:00 +17°C° 0 mm 3 mps 746 mmHg 61%
15:00 +16°C° 0 mm 3 mps 746 mmHg 64%
16:00 +16°C° 0 mm 2 mps 746 mmHg 67%
17:00 +15°C° 0 mm 2 mps 746 mmHg 70%
18:00 +14°C° 0 mm 2 mps 746 mmHg 71%
19:00 +14°C° 0 mm 1 mps 747 mmHg 72%
20:00 +14°C° 0 mm 1 mps 747 mmHg 74%
21:00 +13°C° 0 mm 1 mps 748 mmHg 74%
22:00 +13°C° 0 mm 1 mps 748 mmHg 75%
23:00 +12°C° 0 mm 1 mps 748 mmHg 75%
Show more